IRIDIUM 106 1 41917U 17003A 26072.58238675 .00000087 00000+0 23872-4 0 9994 2 41917 86.3973 128.5354 0002162 106.7017 253.4417 14.34217148479507 IRIDIUM 103 1 41918U 17003B 26072.56970193 .00000058 00000+0 13803-4 0 9992 2 41918 86.3973 128.4409 0001990 88.6417 271.5007 14.34217242479521 IRIDIUM 109 1 41919U 17003C 26072.57604492 -.00000036 00000+0 -19825-4 0 9998 2 41919 86.3974 128.4957 0002058 94.9985 265.1446 14.34217205479498 IRIDIUM 102 1 41920U 17003D 26072.19548957 .00000045 00000+0 89195-5 0 9997 2 41920 86.3967 128.5805 0002284 95.7182 264.4274 14.34217750479524 IRIDIUM 105 1 41921U 17003E 26072.50960260 .00000153 00000+0 47339-4 0 9991 2 41921 86.3916 96.8943 0002215 91.9399 268.2050 14.34401740481421 IRIDIUM 104 1 41922U 17003F 26072.55701741 .00000029 00000+0 33608-5 0 9991 2 41922 86.3973 128.4705 0002167 86.8381 273.3062 14.34217611479567 IRIDIUM 114 1 41923U 17003G 26072.56335680 .00000230 00000+0 75203-4 0 9998 2 41923 86.3971 128.4514 0002129 90.5389 269.6051 14.34218994479541 IRIDIUM 108 1 41924U 17003H 26072.52188018 .00000054 00000+0 12238-4 0 9999 2 41924 86.3911 96.7786 0002377 94.4058 265.7410 14.34217293481398 IRIDIUM 112 1 41925U 17003J 26072.55067489 .00000058 00000+0 13619-4 0 9999 2 41925 86.3969 128.3037 0002246 92.1019 268.0434 14.34217591479569 IRIDIUM 111 1 41926U 17003K 26072.60775735 -.00000009 00000+0 -10116-4 0 9993 2 41926 86.3970 128.3475 0001992 94.9220 265.2203 14.34217501479552 IRIDIUM 113 1 42803U 17039A 26072.30865660 .00000747 00000+0 25968-3 0 9998 2 42803 86.4032 2.2399 0002280 78.9770 281.1682 14.34209079457448 IRIDIUM 123 1 42804U 17039B 26072.35012681 .00000041 00000+0 75055-5 0 9992 2 42804 86.3980 33.6744 0002020 85.7112 274.4315 14.34217780456210 IRIDIUM 120 1 42805U 17039C 26072.30230549 .00000048 00000+0 99918-5 0 9994 2 42805 86.4019 2.0373 0002133 88.8256 271.3185 14.34217870457437 IRIDIUM 115 1 42806U 17039D 26072.30335306 .00000477 00000+0 13569-3 0 9994 2 42806 86.4554 2.1528 0001750 89.8039 270.3363 14.43280188460432 IRIDIUM 118 1 42807U 17039E 26072.31207146 .00000239 00000+0 78269-4 0 9991 2 42807 86.3980 33.6880 0002212 84.3220 275.8228 14.34218025456202 IRIDIUM 117 1 42808U 17039F 26072.47063546 -.00000096 00000+0 -41429-4 0 9994 2 42808 86.3980 33.5808 0001939 85.7180 274.4238 14.34217184456253 IRIDIUM 126 1 42809U 17039G 26072.35646922 -.00000022 00000+0 -15084-4 0 9994 2 42809 86.3979 33.6779 0002007 82.1188 278.0236 14.34217505456217 IRIDIUM 124 1 42810U 17039H 26072.23745855 .00000429 00000+0 12143-3 0 9999 2 42810 86.4526 330.4945 0002050 85.0944 275.0491 14.43277722461270 IRIDIUM 128 1 42811U 17039J 26072.41697571 .00000053 00000+0 11704-4 0 9997 2 42811 86.3916 65.1838 0002139 94.8254 265.3186 14.34217639456252 IRIDIUM 121 1 42812U 17039K 26072.30572869 .00000038 00000+0 63903-5 0 9990 2 42812 86.3982 33.7257 0002238 88.6546 271.4907 14.34217822456081 IRIDIUM 133 1 42955U 17061A 26072.44868886 .00000050 00000+0 10686-4 0 9998 2 42955 86.3919 65.2861 0002176 90.1919 269.9527 14.34217668441052 IRIDIUM 100 1 42956U 17061B 26072.44234560 .00000019 00000+0 -36050-6 0 9996 2 42956 86.3917 65.2099 0002050 89.3825 270.7606 14.34217556441055 IRIDIUM 122 1 42957U 17061C 26072.41063102 .00000072 00000+0 18657-4 0 9995 2 42957 86.3915 65.2227 0002064 88.1237 272.0195 14.34217739441057 IRIDIUM 129 1 42958U 17061D 26072.43600307 .00000074 00000+0 19360-4 0 9996 2 42958 86.3918 65.2785 0002423 83.0868 277.0604 14.34217894441077 IRIDIUM 119 1 42959U 17061E 26072.40428608 .00000180 00000+0 57167-4 0 9991 2 42959 86.3917 65.2869 0002148 84.7234 275.4207 14.34219502441089 IRIDIUM 107 1 42960U 17061F 26072.42331714 .00000032 00000+0 44993-5 0 9996 2 42960 86.3917 65.2998 0001855 89.6864 270.4544 14.34217592441098 IRIDIUM 132 1 42961U 17061G 26072.08081748 .00000016 00000+0 -12829-5 0 9994 2 42961 86.3918 65.4234 0001995 90.4536 269.6889 14.34217410441042 IRIDIUM 136 1 42962U 17061H 26072.39160484 .00000053 00000+0 12000-4 0 9994 2 42962 86.3920 65.2994 0002118 87.0550 273.0889 14.34217726441109 IRIDIUM 139 1 42963U 17061J 26072.46771606 .00000010 00000+0 -33812-5 0 9996 2 42963 86.3921 65.3281 0002028 90.9489 269.1939 14.34217671441128 IRIDIUM 125 1 42964U 17061K 26072.38526068 .00000068 00000+0 17093-4 0 9992 2 42964 86.3923 65.4220 0001762 76.9468 283.1924 14.34217968441129 IRIDIUM 135 1 43070U 17083A 26072.28961624 .00000188 00000+0 59941-4 0 9996 2 43070 86.4028 2.0907 0002252 83.9423 276.2029 14.34216066430404 IRIDIUM 138 1 43071U 17083B 26072.31499052 .00000109 00000+0 31978-4 0 9995 2 43071 86.4040 1.7612 0002149 73.4680 286.6751 14.34218045430396 IRIDIUM 116 1 43072U 17083C 26072.28327820 .00000262 00000+0 86516-4 0 9993 2 43072 86.4024 2.0810 0002204 93.2590 266.8859 14.34218154430429 IRIDIUM 130 1 43073U 17083D 26072.32133261 .00000041 00000+0 76334-5 0 9996 2 43073 86.4034 2.3307 0001936 91.4438 268.6980 14.34217913430378 IRIDIUM 151 1 43074U 17083E 26072.29596304 -.00000030 00000+0 -17693-4 0 9996 2 43074 86.4024 2.1314 0002022 85.3056 274.8371 14.34217341430399 IRIDIUM 134 1 43075U 17083F 26072.33401827 .00000013 00000+0 -22464-5 0 9990 2 43075 86.4024 2.1220 0001926 86.6068 273.5348 14.34217566430361 IRIDIUM 137 1 43076U 17083G 26072.27693559 .00000047 00000+0 95731-5 0 9992 2 43076 86.4032 2.2366 0002494 93.4305 266.7176 14.34217999430424 IRIDIUM 141 1 43077U 17083H 26072.47989864 .00000263 00000+0 86940-4 0 9993 2 43077 86.4024 1.9879 0002170 82.8117 277.3325 14.34218552430458 IRIDIUM 153 1 43078U 17083J 26072.22276744 .00000310 00000+0 10351-3 0 9998 2 43078 86.4000 330.6094 0002078 77.3320 282.8108 14.34216520431528 IRIDIUM 131 1 43079U 17083K 26072.32767572 .00000179 00000+0 56855-4 0 9997 2 43079 86.4029 2.2307 0002252 83.2799 276.8653 14.34218495430361 IRIDIUM 144 1 43249U 18030A 26072.22911390 .00000057 00000+0 13357-4 0 9992 2 43249 86.4004 330.5373 0002049 87.8388 272.3043 14.34217947416382 IRIDIUM 149 1 43250U 18030B 26072.23545681 .00000369 00000+0 12454-3 0 9993 2 43250 86.4003 330.5029 0002124 84.5424 275.6014 14.34217497416407 IRIDIUM 157 1 43251U 18030C 26072.25448406 .00000110 00000+0 32183-4 0 9999 2 43251 86.4007 330.5457 0002096 83.1736 276.9698 14.34217767416385 IRIDIUM 140 1 43252U 18030D 26072.20374316 .00000025 00000+0 17275-5 0 9994 2 43252 86.4000 330.5795 0001906 86.2913 273.8501 14.34217616416432 IRIDIUM 145 1 43253U 18030E 26072.26082074 .00000253 00000+0 83237-4 0 9991 2 43253 86.4007 330.5283 0002058 95.1491 264.9939 14.34215941416379 IRIDIUM 146 1 43254U 18030F 26072.24179881 .00000094 00000+0 26615-4 0 9993 2 43254 86.4003 330.5485 0002163 88.9293 271.2151 14.34218031416388 IRIDIUM 148 1 43255U 18030G 26072.21008574 .00000034 00000+0 49568-5 0 9998 2 43255 86.4000 330.6033 0002012 86.0888 274.0538 14.34217735416412 IRIDIUM 142 1 43256U 18030H 26072.24814142 .00000162 00000+0 50863-4 0 9999 2 43256 86.4004 330.4804 0002051 93.3930 266.7500 14.34217899416387 IRIDIUM 150 1 43257U 18030J 26072.21642695 .00000275 00000+0 91255-4 0 9994 2 43257 86.4007 330.6068 0002053 85.6772 274.4659 14.34217034416400 IRIDIUM 143 1 43258U 18030K 26072.26716921 .00000075 00000+0 19633-4 0 9992 2 43258 86.4012 330.6740 0002060 89.9197 270.2235 14.34218009416340 IRIDIUM 161 1 43478U 18047C 26072.56178106 .00000357 00000+0 10016-3 0 9992 2 43478 86.4495 128.4652 0002463 87.6843 272.4640 14.43276692411345 IRIDIUM 152 1 43479U 18047D 26072.58872995 .00000141 00000+0 43129-4 0 9995 2 43479 86.3968 128.3143 0002214 91.1598 268.9852 14.34217361408782 IRIDIUM 147 1 43480U 18047E 26072.59507257 .00000182 00000+0 57881-4 0 9999 2 43480 86.3966 128.3151 0002276 98.7840 261.3613 14.34217757408783 IRIDIUM 110 1 43481U 18047F 26072.60141576 -.00000005 00000+0 -87378-5 0 9991 2 43481 86.3972 128.4014 0002289 85.1020 275.0437 14.34217456408775 IRIDIUM 162 1 43482U 18047G 26072.20882234 .00000356 00000+0 99896-4 0 9995 2 43482 86.4492 128.5050 0002141 94.9707 265.1739 14.43277665411285 IRIDIUM 160 1 43569U 18061A 26072.12863982 .00000122 00000+0 36546-4 0 9991 2 43569 86.3913 96.9768 0002344 90.9318 269.2146 14.34218046399607 IRIDIUM 166 1 43570U 18061B 26072.15401019 .00000080 00000+0 21654-4 0 9992 2 43570 86.3911 96.9178 0002254 95.4894 264.6559 14.34217818399637 IRIDIUM 158 1 43571U 18061C 26072.47113999 -.00000003 00000+0 -82694-5 0 9994 2 43571 86.3912 96.7949 0001956 90.2294 269.9126 14.34217038399641 IRIDIUM 165 1 43572U 18061D 26072.07789881 .00000050 00000+0 10920-4 0 9992 2 43572 86.3913 97.0043 0002238 95.9706 264.1745 14.34217573399611 IRIDIUM 155 1 43573U 18061E 26072.10961203 .00000040 00000+0 73049-5 0 9998 2 43573 86.3910 96.8648 0002095 94.6168 265.5267 14.34217536399585 IRIDIUM 154 1 43574U 18061F 26072.50919567 -.00000107 00000+0 -45357-4 0 9995 2 43574 86.3915 96.8262 0002168 96.6122 263.5321 14.34217570399695 IRIDIUM 163 1 43575U 18061G 26072.14132453 .00000038 00000+0 63777-5 0 9995 2 43575 86.3910 96.8986 0002167 91.2589 268.8855 14.34217571399614 IRIDIUM 156 1 43576U 18061H 26072.11595394 .00000017 00000+0 -10583-5 0 9995 2 43576 86.3911 96.9162 0001961 95.8815 264.2604 14.34217422399602 IRIDIUM 164 1 43577U 18061J 26072.51553665 .00000134 00000+0 40953-4 0 9997 2 43577 86.3913 96.7880 0002401 94.9385 265.2085 14.34218663399705 IRIDIUM 159 1 43578U 18061K 26072.13498230 .00000002 00000+0 -62223-5 0 9992 2 43578 86.3911 96.8859 0002223 89.1136 271.0315 14.34217451399618 IRIDIUM 180 1 43922U 19002A 26072.27401608 .00000070 00000+0 17851-4 0 9999 2 43922 86.3979 33.6667 0002260 84.6164 275.5290 14.34217771375242 IRIDIUM 176 1 43923U 19002B 26072.32453438 .00000733 00000+0 11238-3 0 9992 2 43923 86.6101 33.6023 0002537 90.6278 269.5230 14.72246501385141 IRIDIUM 168 1 43924U 19002C 26072.26767429 .00000346 00000+0 11645-3 0 9996 2 43924 86.3982 33.7439 0002157 86.6875 273.4568 14.34218931375224 IRIDIUM 173 1 43925U 19002D 26072.32475599 .00000134 00000+0 40738-4 0 9999 2 43925 86.3979 33.6128 0002068 84.2509 275.8922 14.34218079375216 IRIDIUM 169 1 43926U 19002E 26072.40438852 -.00000115 00000+0 -44125-4 0 9995 2 43926 86.4175 65.2319 0001352 84.8486 275.2867 14.38605475376457 IRIDIUM 172 1 43927U 19002F 26072.31841268 .00000180 00000+0 57061-4 0 9998 2 43927 86.3978 33.6228 0002315 84.5503 275.5957 14.34218092375221 IRIDIUM 175 1 43928U 19002G 26072.25202208 .00001071 00000+0 16596-3 0 9994 2 43928 86.1536 330.9712 0002743 103.5346 256.6176 14.72237505385128 IRIDIUM 171 1 43929U 19002H 26072.29938605 .00000048 00000+0 10031-4 0 9998 2 43929 86.3988 33.9269 0002163 92.0299 268.1145 14.34217874375212 IRIDIUM 170 1 43930U 19002J 26072.33071429 .00001217 00000+0 18910-3 0 9999 2 43930 86.6099 33.6027 0002633 88.0202 272.1317 14.72244695385153 IRIDIUM 167 1 43931U 19002K 26072.29304321 -.00000191 00000+0 -75126-4 0 9990 2 43931 86.3980 33.6557 0001877 93.6890 266.4521 14.34216611375216 IRIDIUM 181 1 56726U 23068S 26072.50122253 .00000199 00000+0 53187-4 0 9998 2 56726 86.4448 96.8043 0002613 92.6530 267.4970 14.43308706148632 IRIDIUM 177 1 56727U 23068T 26072.32832289 .00001684 00000+0 21824-3 0 9998 2 56727 86.2007 14.2962 0002237 75.4812 284.6657 14.80220296152186 IRIDIUM 174 1 56728U 23068U 26072.31834185 .00001265 00000+0 19674-3 0 9990 2 56728 86.6107 33.7456 0002532 79.5940 280.5563 14.72259301151912 IRIDIUM 178 1 56729U 23068V 26072.38500446 .00000645 00000+0 81452-4 0 9993 2 56729 86.6490 65.3913 0002538 98.9276 261.2233 14.80229359152190 IRIDIUM 179 1 56730U 23068W 26072.58243026 .00001312 00000+0 16926-3 0 9990 2 56730 86.6721 74.0116 0002272 94.4947 265.6534 14.80229913152224